StationID,Date,MaxTemp,MinTemp,Precipitation,Snowfall,SnowDepth
"US1AKAB0001","2007-04-07",,,38.00,0.00,305.00
"US1AKAB0001","2007-04-08",,,0.00,0.00,279.00
"US1AKAB0001","2007-04-09",,,0.00,0.00,254.00
"US1AKAB0001","2007-04-10",,,0.00,0.00,229.00
"US1AKAB0001","2007-04-11",,,3.00,0.00,203.00
"US1AKAB0001","2007-04-12",,,0.00,0.00,152.00
"US1AKAB0001","2007-04-13",,,0.00,0.00,127.00
"US1AKAB0001","2007-04-14",,,0.00,0.00,76.00
"US1AKAB0001","2007-04-15",,,0.00,0.00,0.00
"US1AKAB0001","2007-04-28",,,0.00,0.00,
"US1AKAB0001","2007-04-29",,,0.00,0.00,
"US1AKAB0001","2007-04-30",,,0.00,0.00,
"US1AKAB0001","2007-05-01",,,0.00,0.00,0.00
"US1AKAB0001","2007-05-02",,,0.00,0.00,0.00
"US1AKAB0001","2007-05-03",,,0.00,0.00,0.00
"US1AKAB0001","2007-05-05",,,0.00,0.00,0.00
"US1AKAB0001","2007-05-06",,,0.00,0.00,0.00
"US1AKAB0001","2007-05-07",,,43.00,0.00,0.00
"US1AKAB0001","2007-05-08",,,3.00,0.00,
"US1AKAB0001","2007-05-09",,,0.00,0.00,0.00
"US1AKAB0001","2007-05-10",,,8.00,0.00,0.00
"US1AKAB0001","2007-05-11",,,0.00,0.00,0.00
"US1AKAB0001","2007-05-12",,,0.00,0.00,0.00
"US1AKAB0001","2007-05-13",,,0.00,0.00,0.00
"US1AKAB0001","2007-05-14",,,0.00,0.00,0.00
"US1AKAB0001","2007-05-15",,,0.00,0.00,0.00
"US1AKAB0001","2007-05-16",,,0.00,0.00,0.00
"US1AKAB0001","2007-05-17",,,0.00,0.00,0.00
"US1AKAB0001","2007-05-18",,,0.00,0.00,0.00
"US1AKAB0001","2007-05-19",,,0.00,0.00,0.00
"US1AKAB0001","2007-05-20",,,0.00,0.00,0.00
"US1AKAB0001","2007-05-21",,,0.00,0.00,0.00
"US1AKAB0001","2007-05-22",,,0.00,0.00,0.00
"US1AKAB0001","2007-05-23",,,0.00,0.00,0.00
"US1AKAB0001","2007-05-24",,,25.00,0.00,0.00
"US1AKAB0001","2007-05-25",,,0.00,0.00,0.00
"US1AKAB0001","2007-05-26",,,0.00,0.00,0.00
"US1AKAB0001","2007-05-27",,,0.00,0.00,0.00
"US1AKAB0001","2007-05-28",,,0.00,0.00,0.00
"US1AKAB0001","2007-05-29",,,0.00,0.00,0.00
"US1AKAB0001","2007-05-30",,,0.00,0.00,0.00
"US1AKAB0001","2007-05-31",,,0.00,0.00,0.00
"US1AKAB0001","2007-06-01",,,0.00,0.00,
"US1AKAB0001","2007-06-05",,,0.00,0.00,
"US1AKAB0001","2007-06-06",,,0.00,0.00,
"US1AKAB0001","2007-06-07",,,0.00,0.00,
"US1AKAB0001","2007-06-08",,,0.00,0.00,
"US1AKAB0001","2007-06-09",,,0.00,0.00,
"US1AKAB0001","2007-06-11",,,0.00,0.00,
"US1AKAB0001","2007-06-12",,,0.00,0.00,
"US1AKAB0001","2007-06-13",,,0.00,0.00,
"US1AKAB0001","2007-06-25",,,,,0.00
"US1AKAB0001","2007-06-26",,,0.00,0.00,
"US1AKAB0001","2007-07-21",,,,,0.00
"US1AKAB0001","2007-07-23",,,163.00,0.00,
"US1AKAB0001","2007-07-24",,,5.00,0.00,
"US1AKAB0001","2007-07-25",,,10.00,0.00,
"US1AKAB0001","2007-07-26",,,0.00,0.00,
"US1AKAB0001","2007-07-27",,,0.00,0.00,
"US1AKAB0001","2007-07-28",,,0.00,0.00,
"US1AKAB0001","2007-07-29",,,0.00,0.00,
"US1AKAB0001","2007-07-30",,,51.00,0.00,
"US1AKAB0001","2007-07-31",,,0.00,0.00,
"US1AKAB0001","2007-08-01",,,0.00,0.00,
"US1AKAB0001","2007-08-02",,,0.00,0.00,
"US1AKAB0001","2007-08-05",,,51.00,0.00,
"US1AKAB0001","2007-08-06",,,5.00,0.00,
"US1AKAB0001","2007-08-07",,,0.00,0.00,
"US1AKAB0001","2007-08-09",,,5.00,0.00,
"US1AKAB0001","2007-08-12",,,0.00,0.00,
"US1AKAB0001","2007-08-13",,,0.00,0.00,
"US1AKAB0001","2007-08-14",,,0.00,0.00,
"US1AKAB0001","2007-08-15",,,135.00,0.00,
"US1AKAB0001","2007-08-16",,,86.00,0.00,
"US1AKAB0001","2007-08-17",,,0.00,0.00,
"US1AKAB0001","2007-08-18",,,8.00,0.00,
"US1AKAB0001","2007-08-19",,,0.00,0.00,
"US1AKAB0001","2007-08-20",,,15.00,0.00,
"US1AKAB0001","2007-08-21",,,18.00,0.00,
"US1AKAB0001","2007-08-22",,,0.00,0.00,
"US1AKAB0001","2007-08-23",,,8.00,0.00,
"US1AKAB0001","2007-08-24",,,8.00,0.00,
"US1AKAB0001","2007-08-25",,,0.00,0.00,
"US1AKAB0001","2007-08-26",,,0.00,0.00,
"US1AKAB0001","2007-08-27",,,0.00,0.00,
"US1AKAB0001","2007-08-28",,,0.00,0.00,
"US1AKAB0001","2007-08-29",,,0.00,0.00,
"US1AKAB0001","2007-08-30",,,0.00,0.00,
"US1AKAB0001","2007-08-31",,,0.00,0.00,
"US1AKAB0001","2007-09-01",,,0.00,0.00,
"US1AKAB0001","2007-09-02",,,0.00,0.00,
"US1AKAB0001","2007-09-03",,,0.00,0.00,
"US1AKAB0001","2007-09-04",,,0.00,0.00,
"US1AKAB0001","2007-09-05",,,0.00,0.00,
"US1AKAB0001","2007-09-06",,,3.00,0.00,
"US1AKAB0001","2007-09-07",,,0.00,0.00,
"US1AKAB0001","2007-09-08",,,58.00,0.00,
"US1AKAB0001","2007-09-09",,,137.00,0.00,
"US1AKAB0001","2007-09-10",,,23.00,0.00,
"US1AKAB0001","2007-09-11",,,0.00,0.00,
"US1AKAB0001","2007-09-12",,,30.00,0.00,
"US1AKAB0001","2007-09-13",,,53.00,0.00,
"US1AKAB0001","2007-09-14",,,30.00,0.00,
"US1AKAB0001","2007-09-17",,,0.00,0.00,
"US1AKAB0001","2007-09-21",,,112.00,0.00,
"US1AKAB0001","2007-09-22",,,0.00,0.00,
"US1AKAB0001","2007-09-23",,,0.00,0.00,
"US1AKAB0001","2007-09-24",,,8.00,0.00,
"US1AKAB0001","2007-09-25",,,152.00,0.00,
"US1AKAB0001","2007-09-26",,,51.00,0.00,
"US1AKAB0001","2007-09-28",,,0.00,0.00,
"US1AKAB0001","2007-09-29",,,0.00,0.00,0.00
"US1AKAB0001","2007-09-30",,,41.00,0.00,0.00
"US1AKAB0001","2007-10-01",,,51.00,0.00,0.00
"US1AKAB0001","2007-10-02",,,56.00,0.00,0.00
"US1AKAB0001","2007-10-03",,,0.00,0.00,0.00
"US1AKAB0001","2007-10-04",,,0.00,0.00,0.00
"US1AKAB0001","2007-10-05",,,3.00,0.00,0.00
"US1AKAB0001","2007-10-06",,,13.00,0.00,0.00
"US1AKAB0001","2007-10-07",,,0.00,0.00,0.00
"US1AKAB0001","2007-10-08",,,0.00,0.00,0.00
"US1AKAB0001","2007-10-09",,,0.00,0.00,0.00
"US1AKAB0001","2007-10-10",,,0.00,0.00,0.00
"US1AKAB0001","2007-10-11",,,0.00,0.00,0.00
"US1AKAB0001","2007-10-12",,,0.00,0.00,0.00
"US1AKAB0001","2007-10-13",,,0.00,0.00,0.00
"US1AKAB0001","2007-10-14",,,104.00,0.00,0.00
"US1AKAB0001","2007-10-15",,,23.00,0.00,0.00
"US1AKAB0001","2007-10-16",,,0.00,0.00,0.00
"US1AKAB0001","2007-10-17",,,0.00,0.00,0.00
"US1AKAB0001","2007-10-22",,,0.00,0.00,0.00
"US1AKAB0001","2007-10-23",,,5.00,8.00,8.00
"US1AKAB0001","2007-10-24",,,0.00,0.00,0.00
"US1AKAB0001","2007-10-25",,,69.00,10.00,13.00
"US1AKAB0001","2007-10-26",,,0.00,0.00,0.00
"US1AKAB0001","2007-10-27",,,20.00,0.00,0.00
"US1AKAB0001","2007-10-28",,,0.00,0.00,0.00
"US1AKAB0001","2007-10-29",,,0.00,0.00,0.00
"US1AKAB0001","2007-10-30",,,0.00,0.00,0.00
"US1AKAB0001","2007-10-31",,,20.00,0.00,0.00
"US1AKAB0001","2007-11-01",,,3.00,0.00,0.00
"US1AKAB0001","2007-11-02",,,13.00,0.00,0.00
"US1AKAB0001","2007-11-03",,,18.00,0.00,0.00
"US1AKAB0001","2007-11-04",,,0.00,0.00,0.00
"US1AKAB0001","2007-11-05",,,0.00,0.00,0.00
"US1AKAB0001","2007-11-06",,,0.00,0.00,0.00
"US1AKAB0001","2007-11-07",,,0.00,0.00,0.00
"US1AKAB0001","2007-11-08",,,3.00,0.00,0.00
"US1AKAB0001","2007-11-09",,,0.00,0.00,0.00
"US1AKAB0001","2007-11-10",,,0.00,0.00,0.00
"US1AKAB0001","2007-11-11",,,38.00,28.00,25.00
"US1AKAB0001","2007-11-12",,,48.00,104.00,127.00
"US1AKAB0001","2007-11-13",,,0.00,3.00,89.00
"US1AKAB0001","2007-11-14",,,23.00,38.00,102.00
"US1AKAB0001","2007-11-15",,,0.00,0.00,76.00
"US1AKAB0001","2007-11-17",,,0.00,0.00,76.00
"US1AKAB0001","2007-11-18",,,15.00,23.00,114.00
"US1AKAB0001","2007-11-19",,,48.00,91.00,127.00
"US1AKAB0001","2007-11-20",,,0.00,0.00,114.00
"US1AKAB0001","2007-11-21",,,0.00,0.00,
"US1AKAB0001","2007-11-22",,,0.00,0.00,
"US1AKAB0001","2007-11-25",,,0.00,0.00,0.00
"US1AKAB0001","2007-11-26",,,0.00,0.00,0.00
"US1AKAB0001","2007-11-27",,,0.00,0.00,0.00
"US1AKAB0001","2007-11-28",,,0.00,0.00,0.00
"US1AKAB0001","2007-11-29",,,0.00,0.00,0.00
"US1AKAB0001","2007-11-30",,,0.00,0.00,0.00
"US1AKAB0001","2007-12-01",,,0.00,0.00,0.00
"US1AKAB0001","2007-12-03",,,0.00,0.00,0.00
"US1AKAB0001","2007-12-04",,,0.00,0.00,0.00
"US1AKAB0001","2007-12-05",,,0.00,0.00,0.00
"US1AKAB0001","2007-12-06",,,0.00,0.00,0.00
"US1AKAB0001","2007-12-07",,,0.00,0.00,0.00
"US1AKAB0001","2007-12-08",,,0.00,0.00,0.00
"US1AKAB0001","2007-12-09",,,0.00,0.00,0.00
"US1AKAB0001","2007-12-10",,,0.00,0.00,0.00
"US1AKAB0001","2007-12-12",,,46.00,51.00,51.00
"US1AKAB0001","2007-12-13",,,0.00,0.00,51.00
"US1AKAB0001","2007-12-14",,,0.00,0.00,51.00
"US1AKAB0001","2007-12-15",,,0.00,0.00,
"US1AKAB0001","2007-12-16",,,0.00,0.00,
"US1AKAB0001","2007-12-17",,,0.00,0.00,
"US1AKAB0001","2007-12-18",,,0.00,0.00,
"US1AKAB0001","2008-02-26",,,0.00,0.00,305.00
"US1AKAB0001","2008-07-22",,,33.00,0.00,
"US1AKAB0001","2008-07-23",,,86.00,0.00,
"US1AKAB0001","2008-07-24",,,185.00,0.00,
"US1AKAB0001","2008-07-25",,,3.00,0.00,0.00
"US1AKAB0001","2008-07-26",,,30.00,0.00,0.00
"US1AKAB0001","2008-07-27",,,86.00,0.00,
"US1AKAB0001","2008-07-28",,,3.00,0.00,0.00
"US1AKAB0001","2008-07-29",,,61.00,0.00,0.00
"US1AKAB0001","2008-07-30",,,0.00,0.00,0.00
"US1AKAB0001","2008-07-31",,,0.00,0.00,0.00
"US1AKAB0001","2008-08-01",,,0.00,0.00,
"US1AKAB0001","2008-08-02",,,0.00,0.00,
"US1AKAB0001","2008-08-03",,,0.00,0.00,
"US1AKAB0001","2008-08-04",,,0.00,0.00,
"US1AKAB0001","2008-08-08",,,,,0.00
"US1AKAB0001","2008-08-09",,,0.00,0.00,
"US1AKAB0001","2008-08-10",,,61.00,0.00,
"US1AKAB0001","2008-08-11",,,13.00,0.00,
"US1AKAB0001","2008-08-12",,,0.00,0.00,
"US1AKAB0001","2008-08-13",,,0.00,0.00,
"US1AKAB0001","2008-08-14",,,0.00,0.00,
"US1AKAB0001","2008-08-15",,,48.00,0.00,
"US1AKAB0001","2008-08-16",,,41.00,0.00,
"US1AKAB0001","2008-08-17",,,13.00,0.00,
"US1AKAB0001","2008-08-18",,,0.00,0.00,
"US1AKAB0001","2008-08-19",,,0.00,0.00,
"US1AKAB0001","2008-08-20",,,0.00,0.00,
"US1AKAB0001","2008-08-21",,,18.00,0.00,
"US1AKAB0001","2008-08-22",,,20.00,0.00,
"US1AKAB0001","2008-08-23",,,0.00,0.00,
"US1AKAB0001","2008-08-24",,,3.00,0.00,
"US1AKAB0001","2008-08-25",,,3.00,0.00,
"US1AKAB0001","2008-08-26",,,0.00,0.00,
"US1AKAB0001","2008-08-27",,,0.00,0.00,
"US1AKAB0001","2008-08-28",,,10.00,0.00,
"US1AKAB0001","2008-08-29",,,18.00,0.00,
"US1AKAB0001","2008-08-30",,,0.00,0.00,
"US1AKAB0001","2008-08-31",,,0.00,0.00,
"US1AKAB0001","2008-09-01",,,0.00,0.00,
"US1AKAB0001","2008-09-02",,,0.00,0.00,
"US1AKAB0001","2008-09-03",,,0.00,0.00,
"US1AKAB0001","2008-09-04",,,5.00,0.00,
"US1AKAB0001","2008-09-05",,,5.00,0.00,
"US1AKAB0001","2008-09-06",,,3.00,0.00,
"US1AKAB0001","2008-09-07",,,43.00,0.00,
"US1AKAB0001","2008-09-08",,,5.00,0.00,
"US1AKAB0001","2008-09-09",,,56.00,0.00,
"US1AKAB0001","2008-09-10",,,43.00,0.00,
"US1AKAB0001","2008-09-11",,,10.00,0.00,
"US1AKAB0001","2008-09-12",,,8.00,0.00,
"US1AKAB0001","2008-09-15",,,,,0.00
"US1AKAB0001","2008-09-16",,,25.00,0.00,
"US1AKAB0001","2008-09-17",,,239.00,0.00,
"US1AKAB0001","2008-09-18",,,8.00,0.00,
"US1AKAB0001","2008-09-19",,,3.00,0.00,
"US1AKAB0001","2008-09-20",,,5.00,0.00,
"US1AKAB0001","2008-09-21",,,74.00,0.00,
"US1AKAB0001","2008-09-22",,,0.00,0.00,
"US1AKAB0001","2008-09-23",,,0.00,0.00,
"US1AKAB0001","2008-09-24",,,79.00,0.00,
"US1AKAB0001","2008-09-25",,,10.00,0.00,
"US1AKAB0001","2008-09-26",,,0.00,0.00,
"US1AKAB0001","2008-09-27",,,0.00,0.00,
"US1AKAB0001","2008-09-28",,,0.00,0.00,
"US1AKAB0001","2008-09-29",,,0.00,0.00,
"US1AKAB0001","2008-09-30",,,0.00,0.00,
"US1AKAB0001","2008-10-01",,,0.00,0.00,0.00
"US1AKAB0001","2008-10-02",,,0.00,0.00,0.00
"US1AKAB0001","2008-10-03",,,15.00,0.00,0.00
"US1AKAB0001","2008-10-04",,,30.00,0.00,0.00
"US1AKAB0001","2008-10-05",,,3.00,0.00,0.00
"US1AKAB0001","2008-10-06",,,79.00,8.00,8.00
"US1AKAB0001","2008-10-07",,,69.00,69.00,76.00
"US1AKAB0001","2008-10-08",,,0.00,0.00,38.00
"US1AKAB0001","2008-10-09",,,0.00,0.00,0.00
"US1AKAB0001","2008-10-10",,,10.00,0.00,0.00
"US1AKAB0001","2008-10-11",,,23.00,0.00,0.00
"US1AKAB0001","2008-10-12",,,58.00,18.00,18.00
"US1AKAB0001","2008-10-13",,,61.00,71.00,76.00
"US1AKAB0001","2008-10-14",,,20.00,33.00,76.00
"US1AKAB0001","2008-10-15",,,13.00,51.00,89.00
"US1AKAB0001","2008-10-16",,,0.00,0.00,51.00
"US1AKAB0001","2008-10-17",,,0.00,0.00,51.00
"US1AKAB0001","2008-10-18",,,0.00,0.00,38.00
"US1AKAB0001","2008-10-19",,,0.00,0.00,38.00
"US1AKAB0001","2008-10-20",,,0.00,0.00,38.00
"US1AKAB0001","2008-10-21",,,13.00,0.00,25.00
"US1AKAB0001","2008-10-22",,,0.00,0.00,0.00
"US1AKAB0001","2008-10-23",,,0.00,5.00,25.00
"US1AKAB0001","2008-10-24",,,0.00,0.00,25.00
"US1AKAB0001","2008-10-25",,,0.00,0.00,25.00
"US1AKAB0001","2008-10-26",,,0.00,0.00,0.00
"US1AKAB0001","2008-10-27",,,0.00,0.00,0.00
"US1AKAB0001","2008-10-28",,,0.00,0.00,0.00
"US1AKAB0001","2008-10-29",,,0.00,0.00,0.00
"US1AKAB0001","2008-10-30",,,0.00,0.00,0.00
"US1AKAB0001","2008-10-31",,,0.00,0.00,0.00
"US1AKAB0001","2008-11-01",,,0.00,0.00,0.00
"US1AKAB0001","2008-11-02",,,0.00,0.00,0.00
"US1AKAB0001","2008-11-03",,,0.00,0.00,0.00
"US1AKAB0001","2008-11-04",,,18.00,15.00,15.00
"US1AKAB0001","2008-11-09",,,0.00,0.00,25.00
"US1AKAB0001","2008-11-10",,,0.00,0.00,25.00
"US1AKAB0001","2008-11-11",,,0.00,0.00,25.00
"US1AKAB0001","2008-11-12",,,53.00,97.00,102.00
"US1AKAB0001","2008-11-13",,,0.00,0.00,89.00
"US1AKAB0001","2008-11-14",,,0.00,0.00,89.00
"US1AKAB0001","2008-11-17",,,10.00,8.00,102.00
"US1AKAB0001","2008-11-18",,,0.00,0.00,102.00
"US1AKAB0001","2008-11-19",,,0.00,0.00,76.00
"US1AKAB0001","2008-11-20",,,0.00,0.00,71.00
"US1AKAB0001","2008-11-21",,,0.00,0.00,64.00
"US1AKAB0001","2008-11-23",,,30.00,76.00,127.00
"US1AKAB0001","2008-11-24",,,0.00,0.00,114.00
"US1AKAB0001","2008-11-25",,,0.00,0.00,114.00
"US1AKAB0001","2008-11-26",,,79.00,127.00,191.00
"US1AKAB0001","2008-11-27",,,13.00,41.00,178.00
"US1AKAB0001","2008-11-30",,,119.00,165.00,330.00
"US1AKAB0001","2008-12-01",,,33.00,58.00,343.00
"US1AKAB0001","2008-12-02",,,0.00,0.00,330.00
"US1AKAB0001","2008-12-03",,,0.00,0.00,330.00
"US1AKAB0001","2008-12-04",,,20.00,18.00,356.00
"US1AKAB0001","2008-12-05",,,0.00,0.00,343.00
"US1AKAB0001","2008-12-06",,,0.00,0.00,305.00
"US1AKAB0001","2008-12-07",,,0.00,0.00,292.00
"US1AKAB0001","2008-12-08",,,13.00,0.00,292.00
"US1AKAB0001","2008-12-09",,,0.00,0.00,292.00
"US1AKAB0001","2008-12-10",,,74.00,86.00,356.00
"US1AKAB0001","2008-12-11",,,28.00,56.00,406.00
"US1AKAB0001","2008-12-12",,,0.00,0.00,419.00
"US1AKAB0001","2008-12-13",,,0.00,0.00,419.00
"US1AKAB0001","2008-12-14",,,0.00,0.00,432.00
"US1AKAB0001","2008-12-15",,,0.00,0.00,457.00
"US1AKAB0001","2008-12-16",,,0.00,25.00,470.00
"US1AKAB0001","2008-12-17",,,0.00,0.00,470.00
"US1AKAB0001","2008-12-18",,,0.00,0.00,470.00
"US1AKAB0001","2008-12-19",,,0.00,0.00,470.00
"US1AKAB0001","2008-12-20",,,0.00,0.00,419.00
"US1AKAB0001","2008-12-21",,,0.00,0.00,368.00
"US1AKAB0001","2008-12-22",,,0.00,0.00,356.00
"US1AKAB0001","2008-12-23",,,0.00,5.00,368.00
"US1AKAB0001","2008-12-24",,,64.00,86.00,457.00
"US1AKAB0001","2008-12-25",,,0.00,0.00,432.00
"US1AKAB0001","2008-12-26",,,191.00,152.00,559.00
"US1AKAB0001","2008-12-27",,,0.00,5.00,483.00
"US1AKAB0001","2008-12-28",,,0.00,0.00,483.00
"US1AKAB0001","2008-12-29",,,0.00,0.00,559.00
"US1AKAB0001","2008-12-30",,,0.00,0.00,559.00
"US1AKAB0001","2008-12-31",,,0.00,0.00,533.00
"US1AKAB0001","2009-01-01",,,0.00,0.00,508.00
"US1AKAB0001","2009-01-02",,,0.00,0.00,432.00
"US1AKAB0001","2009-01-03",,,0.00,0.00,432.00
"US1AKAB0001","2009-01-04",,,0.00,0.00,419.00
"US1AKAB0001","2009-01-05",,,0.00,0.00,419.00
"US1AKAB0001","2009-01-06",,,0.00,0.00,406.00
"US1AKAB0001","2009-01-07",,,0.00,0.00,381.00
"US1AKAB0001","2009-01-08",,,0.00,0.00,356.00
"US1AKAB0001","2009-01-09",,,0.00,0.00,356.00
"US1AKAB0001","2009-01-10",,,0.00,0.00,381.00
"US1AKAB0001","2009-01-11",,,0.00,0.00,381.00
"US1AKAB0001","2009-01-12",,,0.00,0.00,381.00
"US1AKAB0001","2009-01-13",,,0.00,0.00,381.00
"US1AKAB0001","2009-01-14",,,64.00,10.00,356.00
"US1AKAB0001","2009-01-15",,,10.00,0.00,305.00
"US1AKAB0001","2009-01-16",,,5.00,0.00,229.00
"US1AKAB0001","2009-01-17",,,91.00,0.00,152.00
"US1AKAB0001","2009-01-18",,,5.00,0.00,152.00
"US1AKAB0001","2009-01-19",,,10.00,5.00,152.00
"US1AKAB0001","2009-01-20",,,8.00,5.00,152.00
"US1AKAB0001","2009-01-21",,,3.00,0.00,140.00
"US1AKAB0001","2009-01-22",,,0.00,0.00,140.00
"US1AKAB0001","2009-01-23",,,0.00,0.00,140.00
"US1AKAB0001","2009-01-24",,,0.00,0.00,140.00
"US1AKAB0001","2009-01-25",,,28.00,15.00,140.00
"US1AKAB0001","2009-01-26",,,0.00,0.00,152.00
"US1AKAB0001","2009-01-27",,,0.00,0.00,140.00
"US1AKAB0001","2009-01-28",,,0.00,0.00,152.00
"US1AKAB0001","2009-01-29",,,28.00,43.00,178.00
"US1AKAB0001","2009-01-30",,,8.00,18.00,165.00
"US1AKAB0001","2009-01-31",,,41.00,86.00,203.00
"US1AKAB0001","2009-02-01",,,0.00,0.00,229.00
"US1AKAB0001","2009-02-02",,,0.00,0.00,229.00
"US1AKAB0001","2009-02-03",,,20.00,36.00,267.00
"US1AKAB0001","2009-02-07",,,0.00,0.00,231.00
"US1AKAB0001","2009-02-08",,,0.00,0.00,234.00
"US1AKAB0001","2009-02-09",,,0.00,0.00,239.00
"US1AKAB0001","2009-02-10",,,0.00,0.00,239.00
"US1AKAB0001","2009-02-11",,,0.00,3.00,239.00
"US1AKAB0001","2009-02-12",,,0.00,5.00,241.00
"US1AKAB0001","2009-02-13",,,0.00,0.00,241.00
"US1AKAB0001","2009-02-14",,,0.00,0.00,241.00
"US1AKAB0001","2009-02-15",,,0.00,0.00,241.00
"US1AKAB0001","2009-02-16",,,0.00,0.00,241.00
"US1AKAB0001","2009-02-17",,,0.00,0.00,236.00
"US1AKAB0001","2009-02-18",,,3.00,3.00,239.00
"US1AKAB0001","2009-02-19",,,8.00,8.00,244.00
"US1AKAB0001","2009-02-20",,,0.00,0.00,244.00
"US1AKAB0001","2009-02-21",,,0.00,0.00,244.00
"US1AKAB0001","2009-02-22",,,0.00,0.00,241.00
"US1AKAB0001","2009-02-23",,,0.00,0.00,241.00
"US1AKAB0001","2009-02-24",,,0.00,0.00,239.00
"US1AKAB0001","2009-02-25",,,0.00,0.00,234.00
"US1AKAB0001","2009-02-26",,,0.00,0.00,236.00
"US1AKAB0001","2009-02-27",,,0.00,0.00,231.00
"US1AKAB0001","2009-02-28",,,15.00,36.00,254.00
"US1AKAB0001","2009-03-01",,,25.00,94.00,
"US1AKAB0001","2009-03-02",,,0.00,0.00,
"US1AKAB0001","2009-03-03",,,0.00,0.00,
"US1AKAB0001","2009-03-04",,,5.00,8.00,
"US1AKAB0001","2009-03-05",,,3.00,5.00,
"US1AKAB0001","2009-03-06",,,51.00,94.00,
"US1AKAB0001","2009-03-14",,,,,330.00
"US1AKAB0001","2009-03-15",,,0.00,0.00,
"US1AKAB0001","2009-03-16",,,0.00,0.00,
"US1AKAB0001","2009-03-17",,,0.00,0.00,
"US1AKAB0001","2009-03-19",,,0.00,0.00,
"US1AKAB0001","2009-03-21",,,0.00,0.00,
"US1AKAB0001","2009-03-22",,,58.00,102.00,
"US1AKAB0001","2009-03-23",,,0.00,0.00,
"US1AKAB0001","2009-03-24",,,0.00,0.00,
"US1AKAB0001","2009-03-25",,,0.00,0.00,
"US1AKAB0001","2009-03-27",,,8.00,18.00,
"US1AKAB0001","2009-03-28",,,10.00,23.00,
"US1AKAB0001","2009-03-29",,,0.00,0.00,
"US1AKAB0001","2009-03-30",,,41.00,66.00,
"US1AKAB0001","2009-03-31",,,0.00,0.00,
"US1AKAB0001","2009-04-01",,,0.00,0.00,292.00
"US1AKAB0001","2009-04-02",,,0.00,0.00,279.00
"US1AKAB0001","2009-04-03",,,0.00,0.00,279.00
"US1AKAB0001","2009-04-04",,,0.00,0.00,279.00
"US1AKAB0001","2009-04-05",,,0.00,0.00,279.00
"US1AKAB0001","2009-04-06",,,0.00,0.00,279.00
"US1AKAB0001","2009-04-07",,,0.00,0.00,267.00
"US1AKAB0001","2009-04-08",,,0.00,0.00,274.00
"US1AKAB0001","2009-04-09",,,0.00,0.00,267.00
"US1AKAB0001","2009-04-10",,,0.00,0.00,259.00
"US1AKAB0001","2009-04-11",,,0.00,0.00,229.00
"US1AKAB0001","2009-04-12",,,0.00,0.00,152.00
"US1AKAB0001","2009-04-13",,,33.00,46.00,165.00
"US1AKAB0001","2009-04-14",,,0.00,0.00,51.00
"US1AKAB0001","2009-04-15",,,0.00,0.00,0.00
"US1AKAB0001","2009-04-16",,,0.00,0.00,0.00
"US1AKAB0001","2009-04-17",,,0.00,0.00,0.00
"US1AKAB0001","2009-05-04",,,0.00,0.00,
"US1AKAB0001","2009-05-05",,,0.00,0.00,
"US1AKAB0001","2009-05-06",,,0.00,0.00,
"US1AKAB0001","2009-05-07",,,10.00,0.00,
"US1AKAB0001","2009-05-08",,,0.00,0.00,
"US1AKAB0001","2009-05-12",,,0.00,0.00,
"US1AKAB0001","2009-05-13",,,0.00,0.00,
"US1AKAB0001","2009-05-14",,,0.00,0.00,
"US1AKAB0001","2009-05-15",,,15.00,0.00,
"US1AKAB0001","2009-05-16",,,104.00,0.00,
"US1AKAB0001","2009-05-17",,,0.00,0.00,
"US1AKAB0001","2009-05-18",,,0.00,0.00,
"US1AKAB0001","2009-05-19",,,0.00,0.00,
"US1AKAB0001","2009-05-20",,,0.00,0.00,
"US1AKAB0001","2009-05-21",,,0.00,0.00,
"US1AKAB0001","2009-05-22",,,0.00,0.00,
"US1AKAB0001","2009-05-31",,,,,0.00
"US1AKAB0001","2009-06-11",,,0.00,0.00,0.00
"US1AKAB0001","2009-06-12",,,0.00,0.00,0.00
"US1AKAB0001","2009-06-13",,,0.00,0.00,0.00
"US1AKAB0001","2009-07-20",,,,,0.00
"US1AKAB0001","2009-07-21",,,0.00,0.00,
"US1AKAB0001","2009-07-25",,,99.00,,
"US1AKAB0001","2009-07-26",,,0.00,0.00,
"US1AKAB0001","2009-07-27",,,0.00,0.00,
"US1AKAB0001","2009-07-28",,,71.00,0.00,
"US1AKAB0001","2009-07-29",,,112.00,0.00,
"US1AKAB0001","2009-07-30",,,64.00,,
"US1AKAB0001","2009-07-31",,,0.00,0.00,
"US1AKAB0001","2009-08-01",,,0.00,0.00,0.00
"US1AKAB0001","2009-08-02",,,0.00,0.00,0.00
"US1AKAB0001","2009-08-03",,,0.00,0.00,0.00
"US1AKAB0001","2009-08-04",,,0.00,0.00,0.00
"US1AKAB0001","2009-08-05",,,119.00,0.00,0.00
"US1AKAB0001","2009-08-06",,,94.00,0.00,0.00
"US1AKAB0001","2009-08-07",,,8.00,0.00,0.00
"US1AKAB0001","2009-08-08",,,3.00,0.00,0.00
"US1AKAB0001","2009-08-09",,,0.00,0.00,0.00
"US1AKAB0001","2009-08-10",,,0.00,0.00,0.00
"US1AKAB0001","2009-08-11",,,0.00,0.00,0.00
"US1AKAB0001","2009-08-12",,,0.00,0.00,0.00
"US1AKAB0001","2009-08-13",,,0.00,0.00,0.00
"US1AKAB0001","2009-08-14",,,64.00,0.00,0.00
"US1AKAB0001","2009-08-15",,,86.00,0.00,0.00
"US1AKAB0001","2009-08-16",,,15.00,0.00,0.00
"US1AKAB0001","2009-08-17",,,10.00,0.00,0.00
"US1AKAB0001","2009-08-18",,,0.00,0.00,0.00
"US1AKAB0001","2009-08-19",,,0.00,0.00,0.00
"US1AKAB0001","2009-08-20",,,0.00,0.00,0.00
"US1AKAB0001","2009-08-21",,,0.00,0.00,0.00
"US1AKAB0001","2009-08-22",,,0.00,0.00,0.00
"US1AKAB0001","2009-08-23",,,0.00,0.00,0.00
"US1AKAB0001","2009-08-24",,,320.00,0.00,0.00
"US1AKAB0001","2009-08-25",,,0.00,0.00,0.00
"US1AKAB0001","2009-08-26",,,0.00,0.00,0.00
"US1AKAB0001","2009-08-27",,,66.00,0.00,0.00
"US1AKAB0001","2009-08-28",,,10.00,0.00,0.00
"US1AKAB0001","2009-08-29",,,18.00,0.00,0.00
"US1AKAB0001","2009-08-30",,,5.00,0.00,0.00
"US1AKAB0001","2009-08-31",,,0.00,0.00,0.00
"US1AKAB0001","2009-09-01",,,0.00,0.00,0.00
"US1AKAB0001","2009-09-02",,,5.00,0.00,0.00
"US1AKAB0001","2009-09-03",,,0.00,0.00,0.00
"US1AKAB0001","2009-09-04",,,0.00,0.00,0.00
"US1AKAB0001","2009-09-05",,,0.00,0.00,0.00
"US1AKAB0001","2009-09-06",,,0.00,0.00,0.00
"US1AKAB0001","2009-09-07",,,0.00,0.00,0.00
"US1AKAB0001","2009-09-08",,,0.00,0.00,0.00
"US1AKAB0001","2009-09-09",,,0.00,0.00,0.00
"US1AKAB0001","2009-09-10",,,0.00,0.00,0.00
"US1AKAB0001","2009-09-14",,,0.00,0.00,0.00
"US1AKAB0001","2009-09-15",,,0.00,0.00,0.00
"US1AKAB0001","2009-09-16",,,0.00,0.00,0.00
"US1AKAB0001","2009-09-17",,,0.00,0.00,0.00
"US1AKAB0001","2009-09-18",,,5.00,0.00,0.00
"US1AKAB0001","2009-09-19",,,0.00,0.00,0.00
"US1AKAB0001","2009-09-20",,,0.00,0.00,0.00
"US1AKAB0001","2009-09-21",,,3.00,0.00,0.00
"US1AKAB0001","2009-09-22",,,25.00,0.00,0.00
"US1AKAB0001","2009-09-23",,,10.00,0.00,0.00
"US1AKAB0001","2009-09-24",,,0.00,0.00,0.00
"US1AKAB0001","2009-09-25",,,53.00,0.00,0.00
"US1AKAB0001","2009-09-26",,,157.00,0.00,0.00
"US1AKAB0001","2009-09-28",,,0.00,0.00,0.00
"US1AKAB0001","2009-09-29",,,0.00,0.00,0.00
"US1AKAB0001","2009-09-30",,,3.00,0.00,0.00
"US1AKAB0001","2009-10-01",,,0.00,0.00,
"US1AKAB0001","2009-10-02",,,0.00,0.00,
"US1AKAB0001","2009-10-06",,,,,0.00
"US1AKAB0001","2009-10-07",,,99.00,0.00,
"US1AKAB0001","2009-10-08",,,38.00,0.00,
"US1AKAB0001","2009-10-09",,,38.00,0.00,
"US1AKAB0001","2009-10-10",,,48.00,,
"US1AKAB0001","2009-10-11",,,5.00,0.00,
"US1AKAB0001","2009-10-12",,,3.00,0.00,
"US1AKAB0001","2009-10-13",,,0.00,0.00,
"US1AKAB0001","2009-10-14",,,0.00,0.00,
"US1AKAB0001","2009-10-18",,,0.00,0.00,
"US1AKAB0001","2009-10-19",,,0.00,0.00,
"US1AKAB0001","2009-10-20",,,0.00,0.00,
"US1AKAB0001","2009-10-21",,,0.00,0.00,
"US1AKAB0001","2009-10-22",,,0.00,0.00,
"US1AKAB0001","2009-10-23",,,0.00,0.00,
"US1AKAB0001","2009-10-24",,,0.00,0.00,
"US1AKAB0001","2009-10-25",,,0.00,0.00,
"US1AKAB0001","2009-10-26",,,0.00,0.00,
"US1AKAB0001","2009-10-28",,,,,0.00
"US1AKAB0001","2009-10-29",,,3.00,0.00,
"US1AKAB0001","2009-10-30",,,0.00,0.00,
"US1AKAB0001","2009-10-31",,,0.00,0.00,
"US1AKAB0001","2009-11-01",,,0.00,0.00,0.00
"US1AKAB0001","2009-11-03",,,0.00,0.00,0.00
"US1AKAB0001","2009-11-04",,,0.00,0.00,0.00
"US1AKAB0001","2009-11-05",,,0.00,0.00,0.00